[[{"header":{"parameterUnit":"m.s-1","parameterCategory":1,"la1":30.2991,"la2":30.254,"lo1":-89.0895,"lo2":-89.0444,"dy":0.0017,"dx":0.0017,"nx":28,"ny":28,"refTime":"2024-07-29T21:00:00:Z","depth":0,"parameterNumber":2,"parameterNumberName":"U-component_of_WINDS"},"data":[0,0,0,0,0,0,0,0,0,0,0,0,0,0,0,0,0,0,0,0,0,0,0,0,0,0,0,0,0,0,0,0,0,0,0,0,0,0,0,0,0,0,0,0,0,0,0,0,0,0,0,0,0,0,0,0,0,0,2.384,2.3841,0,2.3909,2.391,2.3911,2.391,2.3909,2.3908,2.3907,2.398,2.3983,2.3985,0,0,0,0,0,0,0,0,0,0,0,0,0,2.3711,2.3713,2.384,2.3841,2.3842,2.3909,2.391,2.3911,2.391,2.3909,2.3908,2.3907,2.3979,2.3982,2.3986,0,0,0,0,0,0,0,0,0,0,0,0,0,2.3772,2.3714,2.384,2.3849,2.3851,2.3909,2.391,2.3911,2.391,2.3909,2.3907,2.3906,2.3978,2.3982,2.3986,2.404,0,0,2.3999,2.4001,0,0,0,0,0,0,0,0,2.3768,2.3777,2.3847,2.3849,2.3851,2.3899,2.3891,2.3954,2.3911,2.3888,2.3907,2.3906,2.3954,2.396,2.3976,2.4043,2.4046,2.3999,2.4002,2.4004,2.4005,0,0,0,0,0,0,0,2.3764,2.3774,2.3867,2.3848,2.385,2.3851,2.3858,2.3903,2.3928,2.389,2.389,2.3898,2.3955,2.3972,2.3978,2.4047,2.3999,2.4003,2.4005,2.4007,2.4162,2.4164,0,0,0,0,0,0,2.3758,2.377,2.3865,2.387,2.3805,2.3855,2.3863,2.3885,2.3928,2.3933,2.3899,2.3898,2.3966,2.3973,2.3981,2.4047,2.4004,2.4007,2.401,2.4161,2.4163,2.4164,0,0,0,0,0,0,2.3755,2.3766,2.3863,2.382,2.3832,2.3858,2.3884,2.3887,2.3905,2.3935,2.3939,2.3912,2.3965,2.3975,2.4025,2.4049,2.4009,2.4013,2.4159,2.4161,2.4163,2.4179,0,0,0,0,0,0,2.3751,2.3765,2.3785,2.382,2.3834,2.3905,2.3885,2.389,2.3912,2.391,2.3948,2.3953,2.3965,2.4019,2.4029,2.4054,2.4016,2.4157,2.416,2.4163,2.4176,2.4181,2.4186,0,0,0,0,0,2.3746,2.3787,2.3786,2.3797,2.386,2.3906,2.3914,2.3927,2.3913,2.3934,2.3954,2.3952,2.4045,2.4024,2.4036,2.4062,2.4155,2.4159,2.4162,2.4174,2.418,2.4186,0,0,0,0,0,0,2.3754,2.3792,2.3791,2.3844,2.3872,2.3906,2.3932,2.3933,2.3966,2.3963,2.3978,2.3987,2.4037,2.4055,2.4031,2.4117,2.4099,2.4105,2.4103,2.411,2.4114,2.4109,2.402,0,0,0,0,0,2.3762,2.3796,2.3827,2.3871,2.3885,2.3906,2.3927,2.3934,2.3964,2.3976,2.3999,2.4029,2.4065,2.4088,2.4123,2.4179,2.4188,2.4203,2.4208,2.4212,2.4217,2.4249,2.4256,2.4176,2.4176,2.4176,0,0,2.3779,2.3803,2.3824,2.3873,2.3895,2.3931,2.3916,2.3954,2.3981,2.3982,2.4031,2.4049,2.4083,2.4136,2.4161,2.4153,2.4241,2.4216,2.4219,2.4222,2.4253,2.4261,2.4268,2.4179,2.4178,2.4178,0,0,2.3827,2.3849,2.3888,2.3911,2.3945,2.3959,2.3968,2.4003,2.4014,2.4063,2.4065,2.4098,2.4159,2.4184,2.4204,2.4263,2.4262,2.4274,2.4299,2.433,2.4336,2.4342,2.4363,2.4371,2.4279,2.4279,2.4279,0,2.3843,2.3896,2.3908,2.3946,2.3968,2.397,2.4011,2.4032,2.4076,2.4092,2.4082,2.416,2.4183,2.4242,2.4257,2.4273,2.4285,2.427,2.4334,2.434,2.4345,2.4366,2.4374,2.428,2.428,2.428,2.428,0,2.3915,2.3952,2.398,2.4022,2.4047,2.4086,2.4104,2.4129,2.4134,2.4149,2.42,2.4228,2.4269,2.4283,2.4289,2.4344,2.4338,2.4331,2.4313,2.4354,2.4374,2.4382,2.4282,2.4281,2.4281,2.4281,0,0,2.397,2.4018,2.4028,2.4048,2.4086,2.4115,2.4155,2.4194,2.4215,2.4245,2.428,2.4332,2.4326,2.4349,2.4358,2.4385,2.443,2.4375,2.4376,2.4384,2.4494,2.4499,2.4508,2.443,2.4432,2.4433,2.4491,0,2.4023,2.4093,2.4105,2.4166,2.4201,2.4204,2.4238,2.4266,2.4282,2.4314,2.4332,2.4369,2.4358,2.4372,2.4399,2.4419,2.4453,2.4415,2.4463,2.4465,2.4455,2.4518,2.4524,2.4577,2.4499,2.45,2.4501,0,2.4094,2.4126,2.4191,2.4225,2.424,2.427,2.4308,2.4339,2.4371,2.438,2.4406,2.4412,2.4454,2.4434,2.4493,2.4468,2.4488,2.4501,2.4504,2.4509,2.4486,2.4526,2.4595,2.4603,2.4513,2.4512,2.4512,0,2.4128,2.4187,2.4234,2.425,2.4291,2.4313,2.4331,2.4362,2.4385,2.4418,2.4433,2.4471,2.4492,2.4521,2.4537,2.4521,2.4596,2.4577,2.4606,2.4605,2.4621,2.462,2.4695,2.4634,2.4634,2.4634,2.4634,0,2.4186,2.4226,2.425,2.4279,2.4323,2.4337,2.4382,2.44,2.4427,2.446,2.4465,2.4496,2.4514,2.4549,2.4561,2.4609,2.4618,2.4628,2.4631,2.4628,2.4627,2.4641,2.4638,2.4636,2.4635,2.4635,2.4635,0,2.4232,2.4249,2.4301,2.4335,2.4345,2.4376,2.4406,2.4435,2.445,2.4492,2.4503,2.4528,2.4568,2.4587,2.4637,2.4646,2.47,2.4701,2.4689,2.469,2.4719,2.4716,2.4806,2.4819,2.4749,2.475,2.475,0,2.4268,2.4298,2.4336,2.4358,2.4377,2.4412,2.4436,2.4451,2.4476,2.4515,2.4539,2.4579,2.4612,2.4677,2.47,2.4739,2.474,2.4769,2.4746,2.4742,2.4741,2.4739,2.4743,2.4773,2.4774,2.4775,2.4775,0,2.4329,2.4337,2.437,2.4407,2.4435,2.4465,2.4494,2.4513,2.4533,2.456,2.4601,2.4627,2.4678,2.4719,2.4759,2.4778,2.4781,2.4782,2.4791,2.4788,2.478,2.4785,2.4701,2.478,2.478,2.4779,2.4779,2.4779,2.4372,2.4399,2.443,2.4468,2.4491,2.4519,2.4547,2.4567,2.4601,2.4643,2.4651,2.4695,2.4727,2.4781,2.4802,2.4837,2.4831,2.4843,2.4847,2.485,2.4851,2.4775,2.4845,2.4845,2.4845,2.4844,2.4844,0,2.4434,2.4454,2.4489,2.4529,2.4559,2.4558,2.4591,2.4616,2.4654,2.4684,2.4716,2.4764,2.4803,2.483,2.487,2.4893,2.4895,2.4903,2.4902,2.4906,2.4855,2.4843,2.4901,2.4901,2.4901,2.4901,2.4901,2.4901,2.447,2.4517,2.4528,2.4587,2.4607,2.465,2.4669,2.4694,2.4718,2.4771,2.4803,2.482,2.4849,2.4891,2.4928,2.4935,2.4949,2.4958,2.4965,2.4916,2.491,2.4904,2.4894,2.4961,2.4961,2.5013,2.5014,2.5014]},{"header":{"parameterUnit":"m.s-1","parameterCategory":1,"la1":30.2991,"la2":30.254,"lo1":-89.0895,"lo2":-89.0444,"dy":0.0017,"dx":0.0017,"nx":28,"ny":28,"refTime":"2024-07-29T21:00:00:Z","depth":0,"parameterNumber":3,"parameterNumberName":"V-component_of_WINDS"},"data":[0,0,0,0,0,0,0,0,0,0,0,0,0,0,0,0,0,0,0,0,0,0,0,0,0,0,0,0,0,0,0,0,0,0,0,0,0,0,0,0,0,0,0,0,0,0,0,0,0,0,0,0,0,0,0,0,0,0,1.4438,1.4437,0,1.4342,1.4341,1.434,1.4298,1.4298,1.4298,1.4299,1.4198,1.4195,1.4192,0,0,0,0,0,0,0,0,0,0,0,0,0,1.4582,1.458,1.4438,1.4437,1.4436,1.4343,1.4341,1.434,1.4298,1.4298,1.4298,1.4299,1.4199,1.4195,1.4192,0,0,0,0,0,0,0,0,0,0,0,0,0,1.4506,1.4579,1.4438,1.4404,1.44,1.4343,1.4341,1.434,1.4298,1.4298,1.4299,1.4299,1.42,1.4196,1.4191,1.4161,0,0,1.4179,1.4177,0,0,0,0,0,0,0,0,1.4511,1.4501,1.441,1.4406,1.4401,1.4333,1.4355,1.428,1.4298,1.4337,1.4299,1.4299,1.4242,1.4234,1.4216,1.4156,1.4152,1.4178,1.4176,1.4174,1.4173,0,0,0,0,0,0,0,1.4516,1.4505,1.44,1.4409,1.4404,1.4392,1.4382,1.434,1.4289,1.4333,1.433,1.4319,1.424,1.422,1.4213,1.415,1.4178,1.4174,1.4172,1.417,1.4061,1.406,0,0,0,0,0,0,1.4527,1.451,1.4403,1.4397,1.4458,1.4389,1.4378,1.4354,1.429,1.428,1.4319,1.4318,1.4227,1.4218,1.421,1.4169,1.4174,1.417,1.4167,1.4061,1.4061,1.406,0,0,0,0,0,0,1.4531,1.4518,1.4407,1.4453,1.4438,1.4387,1.4361,1.4352,1.4333,1.4279,1.4269,1.4309,1.4227,1.4215,1.4173,1.4165,1.4168,1.4164,1.4061,1.4061,1.406,1.4089,0,0,0,0,0,0,1.4535,1.452,1.4508,1.4453,1.4435,1.4373,1.436,1.435,1.4326,1.4323,1.4267,1.4257,1.4226,1.418,1.4169,1.416,1.4161,1.4062,1.4061,1.4061,1.4089,1.409,1.409,0,0,0,0,0,1.454,1.4519,1.4508,1.4495,1.442,1.4373,1.4363,1.4328,1.4325,1.4313,1.4278,1.4259,1.4168,1.4176,1.4164,1.4152,1.4062,1.4061,1.4061,1.4088,1.4089,1.409,0,0,0,0,0,0,1.4574,1.4512,1.4498,1.4459,1.4422,1.4366,1.4349,1.4331,1.4293,1.4292,1.425,1.4237,1.4199,1.4171,1.4181,1.412,1.4114,1.411,1.4139,1.414,1.414,1.4148,1.4157,0,0,0,0,0,1.4577,1.4545,1.4492,1.4463,1.4445,1.4401,1.4379,1.4355,1.4315,1.4299,1.4261,1.4222,1.4184,1.416,1.4123,1.4085,1.4072,1.4071,1.4072,1.4073,1.407,1.4048,1.4047,1.4057,1.4057,1.4057,0,0,1.4583,1.4545,1.4527,1.4468,1.4437,1.4404,1.4387,1.4353,1.4328,1.4293,1.4251,1.4223,1.4176,1.4136,1.4116,1.4112,1.4065,1.4072,1.4073,1.407,1.4047,1.4046,1.4045,1.4057,1.4057,1.4057,0,0,1.4576,1.4545,1.4517,1.4486,1.4439,1.441,1.4403,1.435,1.433,1.4288,1.4261,1.423,1.4167,1.4134,1.411,1.4092,1.4073,1.4081,1.4085,1.4064,1.4063,1.4062,1.4056,1.4054,1.4079,1.4079,1.4079,0,1.4589,1.4539,1.4504,1.4472,1.4447,1.4415,1.4386,1.4357,1.43,1.4283,1.4279,1.4199,1.4165,1.4117,1.4113,1.4094,1.4084,1.4087,1.4066,1.4065,1.4064,1.4057,1.4054,1.408,1.408,1.408,1.408,0,1.4557,1.4523,1.4506,1.4453,1.4426,1.4395,1.4355,1.4331,1.4311,1.4282,1.4239,1.4197,1.4151,1.4138,1.4117,1.4087,1.4086,1.4075,1.4068,1.4064,1.4057,1.4054,1.4082,1.4081,1.4081,1.4081,0,0,1.4569,1.4497,1.4491,1.4467,1.4413,1.4386,1.4353,1.4309,1.429,1.4252,1.4223,1.417,1.416,1.4132,1.4107,1.4089,1.4077,1.408,1.4078,1.408,1.4041,1.4049,1.4047,1.4064,1.4064,1.4063,1.4045,0,1.4554,1.4496,1.4464,1.4419,1.4387,1.4357,1.4328,1.4292,1.4264,1.4232,1.4201,1.4164,1.4153,1.4136,1.4117,1.4083,1.4068,1.4084,1.4037,1.4035,1.4049,1.4043,1.4052,1.4036,1.4042,1.4041,1.4041,0,1.453,1.4494,1.4446,1.4396,1.4381,1.4357,1.4314,1.4284,1.4242,1.4223,1.4192,1.4168,1.4132,1.4128,1.4078,1.4089,1.4068,1.4048,1.4047,1.4041,1.4038,1.4037,1.4031,1.4028,1.4036,1.4037,1.4037,0,1.4543,1.4482,1.4445,1.4425,1.4366,1.435,1.4324,1.4283,1.4258,1.422,1.4204,1.4162,1.4139,1.4107,1.4071,1.4072,1.4025,1.4018,1.4007,1.4008,1.3998,1.3999,1.3989,1.3985,1.3986,1.3986,1.3986,0,1.453,1.4502,1.445,1.4428,1.4395,1.4358,1.4327,1.4299,1.4262,1.4233,1.4204,1.4177,1.4132,1.41,1.4072,1.4034,1.4024,1.4007,1.4,1.401,1.4012,1.3995,1.3995,1.3985,1.3985,1.3985,1.3985,0,1.4539,1.4503,1.4461,1.441,1.4396,1.4374,1.4329,1.4306,1.4277,1.424,1.423,1.4184,1.4144,1.4106,1.4052,1.4034,1.3996,1.3987,1.4011,1.4007,1.3998,1.3999,1.3976,1.397,1.3972,1.3972,1.3972,0,1.4533,1.4511,1.4457,1.4436,1.4411,1.4378,1.4353,1.4316,1.4291,1.4242,1.4224,1.4183,1.4147,1.4085,1.4046,1.4005,1.3995,1.3989,1.3988,1.3999,1.3994,1.3996,1.3993,1.399,1.399,1.399,1.399,0,1.4526,1.451,1.4476,1.4436,1.4407,1.4374,1.4339,1.4323,1.4279,1.4252,1.4212,1.4185,1.4131,1.4089,1.4044,1.4017,1.3996,1.3991,1.3987,1.3996,1.401,1.4002,1.4013,1.3992,1.3992,1.3992,1.3991,1.3991,1.4527,1.4506,1.4465,1.4428,1.4398,1.4367,1.4342,1.4311,1.4277,1.423,1.421,1.4169,1.4128,1.4065,1.4038,1.4005,1.4,1.3993,1.3991,1.399,1.3992,1.4016,1.3997,1.3996,1.3996,1.3996,1.3996,0,1.4519,1.4491,1.4457,1.441,1.4381,1.4365,1.4326,1.4302,1.4267,1.4231,1.4197,1.415,1.411,1.4069,1.4027,1.4008,1.3998,1.3998,1.3999,1.3993,1.3999,1.4007,1.4008,1.4008,1.4008,1.4008,1.4008,1.4008,1.4511,1.4474,1.4453,1.4401,1.4374,1.4334,1.4313,1.4283,1.4254,1.4204,1.4171,1.4145,1.4106,1.4061,1.4023,1.4012,1.3998,1.4001,1.3987,1.3993,1.3993,1.3992,1.4,1.3998,1.3998,1.3984,1.3984,1.3984]}]]